Погода Столб Остров

Погода Столб Остров : погода сейчас, прогноз погоды и архив. Всё, что Вы хотите узнать о погоде Столб Остров!

Поиск расширенной информации на нашем сайте:

Другие новости

Новости СМИ2

Главная страница сайта

Новости сайта

02.10.2013

Напоминаем, что на нашем новом сайте вы можете получить высокодетализированные прогнозы погоды по пунктам России, СНГ и мира (включающие важные для авиации метеовеличины, такие как направление и скорость ветра, видимость, явления погоды, количество и форма облачности, нижняя и верхняя граница облачности), а также ознакомиться с разнообразными материалами по авиационной метеорологии и подборкой полезных ссылок на эту тему.

Сайт Метеоцентр.Азия посвящён разработке технологий оптимизации авиаметеорологического обслуживания, включая проектирование и перспективное создание нескольких автоматизированных авиаметеорологических систем:
- система выпуска высокодетальных прогностических карт явлений погоды для нижнего воздушного пространства по России и ближнему зарубежью;
- система верификации прогнозов TAF (выпускаемых синоптиками официальных АМСГ РФ и ближнего зарубежья) и AUTOTAF (выпускаемых сайтом Метеоцентр.Азия) - выявление ошибок, онлайн-сопоставление с фактической погодой METAR, автоматическое внесение коррективов в прогнозы при резком отклонении фактической погоды от прогноза, подсчёт оправдываемости прогнозов по элементам и в целом;
- система обработки, анализа и отображения авиаметеорологической информации для применения провайдерами метеорологической информации.


Погода Столб Остров - сегодня

Время (UTC), дата Ветер
(°,м/с) 
Видим.   Явления Облачность Т
(°С)
Тd
(°С)
f(%) Тe
(°С)
Pmin
(гПа)
dP
(гПа)
Po
(мм)
O2
(г/м3)
Тmin Tmax R s Состояние
почвы
21 21.05.17 350 (С) 20000 м    10/0 средняя 
[As op]
-6.1 -8 86 -9  1016.1  -0.3  760  314           
00 22.05.17 360 (С) 20000 м  в посл. час снег  10/0 средняя 
[As op]
-5 -7.4 83 -9  1015.7  -0.4  760  313  -7.9    0.0  40  неравномерный
сухой снег
100% 
03 22.05.17 350 (С) 10 км  слаб. снег  10/0 средняя 
[As op]
-3.8 -6 85 -6  1014.9  -0.8  759  311           
09 22.05.17 340 (С) 4000 м  слаб. снег  10/0 средняя 
[As op]
-3 -5.4 83 -6  1013.8  -0.3  758  310           
12 22.05.17 тихо ()   4000 м  слаб. снег  10/0 средняя 
[As op]
-3.1 -5.5 83 -3  1013.3  -0.5  758  310    -2.8     
15 22.05.17 тихо ()   10 км  слаб. снег  10/0 средняя 
[Ac As]
-5.1 -7.2 85 -5  1012.7  -0.6  758  312           
18 22.05.17 180 (Ю) 10 км  слаб. снег  10/0 средняя 
[Ac As]
-5.4 -7.2 87 -9  1012.5  -0.2  758  312           
21 22.05.17 190 (Ю) 20000 м  слаб. снег  10/0 средняя 
[Ac As]
-4.6 -5.5 93 -6  1012.5  758  311           
00 23.05.17 160 (Ю) 20000 м  снег  10/0 средняя 
[Ac As]
-4.4 -5.6 91 -8  1012.6  0.1  758  311  -5.5    40  неравномерный
сухой снег
100% 
03 23.05.17 150 (ЮВ) 20000 м  позёмок  8/0 средняя, верхняя 
[Sc|Ac trans|Cs]
-4 -5.5 89 -8  1012.8  0.2  758  310           
06 23.05.17 150 (ЮВ) 20000 м  позёмок  10/0 средняя, верхняя 
[As trans|Cs]
-3.4 -5.5 85 -8  1011.1  -1.7  756  309           
09 23.05.17 140 (ЮВ) 20000 м  позёмок  10/0 средняя, верхняя 
[As trans|Cs]
-2.5 -5.1 82 -6  1010.8  -0.3  756  308           
12 23.05.17 120 (ЮВ) 20000 м  позёмок  10/0 средняя 
[Ac As]
-2.6 -4.5 87 -7  1009.6  -1.2  755  308    -1       
15 23.05.17 160 (Ю) 20000 м  позёмок  10/0 средняя 
[Ac trans]
-6.8 -8.4 88 -12  1008.7  -0.9  755  313           
18 23.05.17 150 (ЮВ) 20000 м  позёмок  10/0 средняя 
[Ac As]
-3.4 -5.9 83 -8  1007.1  -1.6  753  308           
21 23.05.17 140 (ЮВ) 20000 м  позёмок  10/0 верхняя 
[Ci fib]
-5 -8.6 76 -9  1005.8  -1.3  752  310           
00 24.05.17 140 (ЮВ) 20000 м  позёмок  3/0 верхняя 
[Ci fib]
-2.9 -7.1 73 -7  1005  -0.8  752  307  -7      40  неравномерный
сухой снег
100% 
03 24.05.17 110 (В) 20000 м  позёмок  ясно 
+0.4 -2.4 81 -3  1004.5  -0.4  752  303           
06 24.05.17 090 (В) 20000 м    ясно 
+0 -4.3 73 -3  1002.2  -2.3  750  303           
09 24.05.17 110 (В) 20000 м    6/0 верхняя 
[Ci fib]
-1.4 -2.5 92 -5  1001.6  -0.7  749  304           
12 24.05.17 060 (СВ) 20000 м    ясно 
-1.5 -3.5 86 -5  1000.2  -1.4  748  304    +2.8       
15 24.05.17 020 (С) 20000 м    ясно 
-2 -4.1 85 -4  998.8  -1.4  747  304           
21 24.05.17 020 (С) 7{12}  20000 м  позёмок  10/10 600 м 
[Sc]
-1.3 -2.4 92 -5  997.2  -0.7  746  302           
00 25.05.17 010 (С) 8-10{13}  20000 м  позёмок  10/10 600 м 
[Sc]
-1.4 -2.2 94 -6  996.5  -0.3  746  302  -2      40  неравномерный
сухой снег
100% 
03 25.05.17 020 (С) 20000 м  позёмок  10/10 600 м 
[Sc]
-1.4 -2.2 94 -6  996.5  746  302           
Время (UTC), дата Ветер
(°,м/с) 
Видим.   Явления Облачность Т
(°С)
Тd
(°С)
f(%) Тe
(°С)
Pmin
(гПа)
dP
(гПа)
Po
(мм)
O2
(г/м3)
Тmin Tmax R s Состояние
почвы

Для получения пояснительной информации подведите курсор к названию столбца.

ПОГОДА Столб Остров - архив

Всё, что Вы хотите узнать о погоде Столб Остров - удобно и подробно!

Выберите нужную дату (начиная с 1 января 2015* года) и нажмите кнопку "Найти".
Будут отображены архивные сводки погоды по пункту Столб Остров, начиная с указанной даты.


Отображать данные в формате CSV (для использования в таблицах Excel)


Внимание! Наш архив погоды предназначен исключительно для личного некоммерческого использования в познавательных целях. Если Вам необходимы официальные справки о состоянии погоды (для производственных, юридических, коммерческих и т.п. целей), обращайтесь в органы Росгидромета.

*Примечание: данная дата относится к архиву по метеостанциям СССР (Россия, СНГ, Балтия).
Архив по метеостанциям Зарубежной Европы и Азии (кроме Китая) хранится 10 дней, по другим регионам земного шара (Китай, Африка, Америка, Австралия, Океания) - 1 день.

Столб Остров - район местоположения метеостанции


Название, широта, долгота, высота метеостанции:
Столб Остров 72.4°ш. 126.5°д. 26 м над ур. моря [Российская Федерация]

Дополнительная информация

В oтличие oт бoльшинства пoгoдных сайтoв мы публикуем пoдрoбную метеoинфoрмацию в детальнoм прoфессиoнальнoм фoрмате.

Характеристики температуры и влажнoсти вoздуха измеряются на высoте 2 м в тени вдали oт зданий и деревьев.
Скoрoсть ветра измеряется на высoте 10 м (на урoвне рoста челoвека скoрoсть ветра ниже в 1.5-2 раза). Если метеoстанция нахoдится в гoрoде или в лесу, тo скoрoсть ветра занижена на 2-4 м/с пo сравнению с oткрытым местoм. Скoрoсть ветра над акватoриями крупных рек и oзёр, а также на вершинах хoлмoв на 2-5 м/с выше, чем в oбычных услoвиях.
Атмoсфернoе давление в разных тoчках местнoсти мoжет значительнo oтличаться oт давления на метеoстанции, в зависимoсти oт услoвий рельефа (при пoдъёме на 10 м давление пoнижается примернo на 1 мм рт.ст.).